EW5897 Weather Reports


time (UTC)temp
C
wind
direction
speed
KPH
gust
KPH
rain 1hr
cm
rain 24hr
cm
rain mn
cm
humidity
%
barometer
mb
20260906212431 20 78 22.5 32.2 0.00 2.92 2.92 86 1011.1
20260906210930 20 80 27.4 38.6 0.00 2.92 2.92 86 1011.1
20260906204926 20 80 27.4 38.6 0.00 2.92 2.92 85 1011.0
20260906202930 20 49 22.5 35.4 0.00 2.92 2.92 84 1011.2
20260906201424 20 58 20.9 27.4 0.00 2.92 2.92 86 1011.4
20260906195426 18 61 19.3 30.6 0.00 2.92 2.92 88 1011.6
20260906193920 18 53 17.7 29.0 0.00 2.92 2.92 92 1012.1
20260906191919 16 53 16.1 30.6 0.00 2.92 2.92 95 1012.7
20260906185927 15 59 14.5 22.5 0.00 2.92 2.92 96 1012.6
20260906183933 15 60 16.1 24.1 0.00 2.92 2.92 96 1012.9
20260906181433 15 50 16.1 29.0 0.03 2.92 2.92 97 1012.4
20260906175915 14 32 16.1 25.7 0.33 2.92 2.92 97 1012.8
20260906173927 15 25 20.9 30.6 0.69 2.92 2.92 97 1012.5
20260906171923 15 37 20.9 32.2 2.39 2.90 2.90 97 1012.1
20260906165920 15 65 8.0 20.9 2.57 2.59 2.59 97 1015.1
20260906164413 15 11 14.5 27.4 2.34 2.34 2.34 97 1015.0
20260906162417 15 273 25.7 48.3 1.07 1.07 1.02 95 1014.0
20260906155923 18 28 11.3 20.9 0.03 0.03 0.03 96 1012.2
20260906153912 18 46 17.7 25.7 0.00 0.00 0.00 96 1012.4
20260906151928 18 40 19.3 25.7 0.00 0.00 0.00 96 1012.8
20260906150423 18 42 16.1 22.5 0.00 0.00 0.00 96 1012.6
20260906144432 18 30 14.5 24.1 0.00 0.00 0.00 97 1012.4
20260906142432 18 51 12.9 22.5 0.00 0.00 0.00 97 1012.5
20260906140427 18 51 14.5 19.3 0.00 0.00 0.00 98 1012.8
20260906134915 17 64 12.9 19.3 0.00 0.00 0.00 98 1012.3
20260906132941 17 43 11.3 19.3 0.00 0.00 0.00 98 1012.4
20260906131422 17 63 9.7 19.3 0.00 0.00 0.00 98 1012.3
20260906125419 17 50 11.3 20.9 0.00 0.00 0.00 98 1012.6
20260906123421 17 24 11.3 19.3 0.00 0.00 0.00 98 1012.5
20260906121428 17 37 12.9 19.3 0.00 0.00 0.00 97 1012.4
20260906115908 17 27 12.9 20.9 0.00 0.00 0.00 97 1012.3
20260906113925 17 26 9.7 16.1 0.00 0.00 0.00 97 1012.6
20260906111933 17 46 9.7 17.7 0.00 0.00 0.00 97 1012.5
20260906110413 17 34 9.7 16.1 0.00 0.00 0.00 97 1012.4
20260906104418 17 36 4.8 9.7 0.00 0.00 0.00 97 1012.5
20260906102431 16 13 6.4 12.9 0.00 0.00 0.00 97 1012.3
20260906100420 16 40 6.4 12.9 0.00 0.00 0.00 97 1012.4
20260906094921 16 26 4.8 9.7 0.00 0.00 0.00 97 1012.4
20260906092931 16 33 4.8 9.7 0.00 0.00 0.00 97 1012.4
20260906091417 16 25 6.4 14.5 0.00 0.00 0.00 97 1012.3
20260906085428 16 11 4.8 8.0 0.00 0.00 0.00 97 1012.5
20260906083916 16 39 3.2 4.8 0.00 0.00 0.00 96 1012.5
20260906081421 16 39 3.2 8.0 0.00 0.00 0.00 97 1012.5
20260906075424 16 259 3.2 8.0 0.00 0.00 0.00 97 1012.4
20260906073426 17 33 3.2 9.7 0.00 0.00 0.00 97 1012.3
20260906071417 16 60 4.8 8.0 0.00 0.00 0.00 96 1012.3
20260906065431 16 49 3.2 6.4 0.00 0.00 0.00 96 1012.5
20260906063924 15 62 3.2 4.8 0.00 0.00 0.00 95 1012.6
20260906062425 16 19 0.0 0.0 0.00 0.00 0.00 95 1012.7
20260906060919 16 19 0.0 0.0 0.00 0.00 0.00 95 1012.6
20260906054935 16 18 1.6 4.8 0.00 0.00 0.00 95 1012.6
20260906052923 16 260 1.6 4.8 0.00 0.00 0.00 95 1012.7
20260906050434 17 19 0.0 0.0 0.00 0.00 0.00 95 1012.7
20260906044424 17 19 0.0 0.0 0.00 0.00 0.00 94 1012.7
20260906042918 17 19 0.0 1.6 0.00 0.00 0.00 94 1012.5
20260906040931 17 22 1.6 4.8 0.00 0.00 0.00 94 1012.3
20260906034931 17 29 3.2 4.8 0.00 0.00 0.00 92 1012.2
20260906032935 18 28 1.6 3.2 0.00 0.00 0.00 91 1012.1
20260906031421 18 30 3.2 4.8 0.00 0.00 0.00 90 1011.9
20260906025425 19 38 1.6 6.4 0.00 0.00 0.00 90 1011.7
20260906023426 20 42 1.6 6.4 0.00 0.00 0.00 88 1011.3
20260906021435 21 31 6.4 14.5 0.00 0.00 0.00 86 1011.1
20260906015434 22 12 9.7 16.1 0.00 0.00 0.00 84 1011.0
20260906013419 23 5 8.0 16.1 0.00 0.00 0.00 81 1010.8
20260906011421 23 15 12.9 20.9 0.00 0.00 0.00 78 1010.6
20260906005424 25 11 14.5 22.5 0.00 0.00 0.00 74 1010.3
20260906003427 26 12 11.3 27.4 0.00 0.00 0.00 72 1010.1
20260906001427 27 5 14.5 20.9 0.00 0.00 0.00 65 1009.8
20260905235441 29 295 14.5 24.1 0.00 0.00 0.00 58 1009.5
20260905232933 30 311 4.8 12.9 0.00 0.00 0.00 55 1009.3
20260905230947 30 10 3.2 9.7 0.00 0.00 0.00 54 1009.0
20260905225432 30 250 3.2 12.9 0.00 0.00 0.00 53 1009.0
20260905223921 29 222 6.4 12.9 0.00 0.00 0.00 55 1009.0
20260905221929 30 115 0.0 6.4 0.00 0.00 0.00 57 1008.9
20260905220423 28 236 4.8 11.3 0.00 0.00 0.00 58 1009.0
20260905214918 29 209 4.8 11.3 0.00 0.00 0.00 57 1009.0